Regional Weather Roundup
Issued by NWS

Home | Current Version | Previous Version | Graphics & Text | Print | Product List | Glossary On
Versions: 1 2 3 4 5 6 7 8 9 10 11 12 13 14 15 16 17 18 19 20 21 22 23 24 25 26 27 28 29 30 31 32 33 34 35 36 37 38 39 40 41 42 43 44 45 46 47 48 49 50
000
ASUS43 KMKX 231911
RWRWI

WISCONSIN REGIONAL WEATHER ROUNDUP
NATIONAL WEATHER SERVICE MILWAUKEE/SULLIVAN WI
200 PM CDT FRI JUN 23 2017

NOTE: "FAIR" INDICATES FEW OR NO CLOUDS BELOW 12,000 FEET WITH NO
SIGNIFICANT WEATHER AND/OR OBSTRUCTIONS TO VISIBILITY.

WIZ001-002-006>008-014>016-023>028-232000-
NORTHWEST WISCONSIN

CITY           SKY/WX    TMP DP  RH WIND       PRES   REMARKS
SUPERIOR ARPT  NOT AVBL
ASHLAND        CLOUDY    68  49  50 W14G23    29.70F
HAYWARD        CLOUDY    65  48  54 VRB6      29.74R
SIREN          CLOUDY    67  49  51 NW13G20   29.77R
CUMBERLAND     CLOUDY    66  48  52 NW14G24   29.76S
RICE LAKE      PTSUNNY   68  49  50 NW14G22   29.76F
CHETEK         CLOUDY    69  54  57 NW9G18    29.74F
LADYSMITH      CLOUDY    67  52  57 W12       29.75R
EAU CLAIRE     PTSUNNY   70  53  54 W18G25    29.75R
MENOMONIE      CLOUDY    70  54  56 W13G20    29.77S
NEW RICHMOND   CLOUDY    69  50  49 NW20G29   29.79R
OSCEOLA        CLOUDY    70  50  49 W15       29.81S
$$

WIZ003>005-009-010-017-018-232000-
NORTH CENTRAL WISCONSIN

CITY           SKY/WX    TMP DP  RH WIND       PRES   REMARKS
MANITOWISH WTR CLOUDY    64  48  56 NW14G25   29.70R
ARBOR VITAE    PTSUNNY   67  49  53 NW15G23   29.69S
WOODRUFF       PTSUNNY   67  49  53 NW15G23   29.69S
RHINELANDER    PTSUNNY   69  51  52 NW16G25   29.70R
EAGLE RIVER    PTSUNNY   67  47  48 W14       29.68S
LAND O LAKES   CLOUDY    65  47  53 NW12G21   29.70R
PHILLIPS       CLOUDY    67  52  57 W5        29.71R
TOMAHAWK       NOT AVBL
MEDFORD        CLOUDY    66  51  59 W14G22    29.73R
MERRILL        CLOUDY    69  51  52 NW17G24   29.70S
$$

WIZ029-030-035-036-043>047-232000-
CENTRAL WISCONSIN

CITY           SKY/WX    TMP DP  RH WIND       PRES   REMARKS
WAUSAU         CLOUDY    69  51  52 NW13G24   29.69R
MOSINEE        PTSUNNY   72  52  49 W20G25    29.72R
MARSHFIELD     MOSUNNY   70  51  51 NW21G29   29.72R
STEVENS POINT  PTSUNNY   71  50  46 NW13G21   29.70S
WAUPACA        MOSUNNY   78  47  33 W16G25    29.68R
WAUTOMA        MOSUNNY   78  53  41 W20       29.69R
WISC RAPIDS    LGT RAIN  75  51  43 W15G21    29.72R
CAMP DOUGLAS   PTSUNNY   73  55  53 W13G26    29.72R
$$

WIZ011>013-019>022-031-037>040-048>050-232000-
NORTHEAST WISCONSIN

CITY           SKY/WX    TMP DP  RH WIND       PRES   REMARKS
ANTIGO         CLOUDY    68  51  54 NW17G29   29.69S
SHAWANO        MOSUNNY   78  48  35 W14G20    29.64S
OCONTO         MOSUNNY   78  49  35 W16G22    29.61S
STURGEON BAY     N/A     76  52  43 W15         N/A
GREEN BAY      MOSUNNY   77  55  46 W20G25    29.64S
MANITOWOC      SUNNY     77  48  35 W15G22    29.65S
APPLETON       PTSUNNY   75  46  35 W16G24    29.66S
CLINTONVILLE   MOSUNNY   77  45  31 W20G25    29.66R
OSHKOSH        MOSUNNY   77  54  44 W14G22    29.66S
$$

WIZ032>034-041-042-053>061-232000-
SOUTHWEST WISCONSIN

CITY           SKY/WX    TMP DP  RH WIND       PRES   REMARKS
LA CROSSE      MOSUNNY   78  54  43 NW17      29.76R
SPARTA         PTSUNNY   72  54  53 NW15G21   29.75S
VIROQUA        PTSUNNY   71  56  59 W14G20    29.77S
BOSCOBEL       MOSUNNY   79  52  38 W16G23    29.74S
PRAIRIE DU CHI MOSUNNY   75  53  45 W18       29.76S
PLATTEVILLE    MOSUNNY   78  54  43 W18G26    29.75S
$$

WIZ056-057-062-063-064-067-068-232000-
SOUTH CENTRAL WISCONSIN

CITY           SKY/WX    TMP DP  RH WIND       PRES   REMARKS
REEDSBURG      PTSUNNY   77  53  43 W18G25    29.72S
BARABOO/DELLS  MOSUNNY   77  46  32 W13G23    29.72R
LONE ROCK      SUNNY     77  49  37 W22G31    29.72S
MINERAL POINT  SUNNY     77  52  41 W20G28    29.74F
MADISON        PTSUNNY   78  53  41 W14G20    29.70F
MIDDLETON      PTSUNNY   77  53  42 W17       29.72S
WATERTOWN      MOSUNNY   77  49  37 W17G23    29.69F
MONROE         MOSUNNY   79  43  27 W20G29    29.73F
JANESVILLE     PTSUNNY   81  46  30 NW20G25   29.71F HX  80
$$

WIZ051-052-058>065-066-070>072-232000-
SOUTHEAST WISCONSIN

CITY           SKY/WX    TMP DP  RH WIND       PRES   REMARKS
MILWAUKEE      MOSUNNY   81  44  27 NW16      29.69R HX  80
WAUKESHA       SUNNY     75  45  33 W15G22    29.71S
MILWAUKEE/TIMM SUNNY     79  37  22 NW17      29.69S
RACINE         SUNNY     80  46  30 NW8       29.71S
KENOSHA        SUNNY     79  48  33 NW10      29.71R
FOND DU LAC    MOSUNNY   78  51  38 W16G25    29.67S
SHEBOYGAN      MOSUNNY   78  53  41 W21G29    29.66F
WEST BEND      MOSUNNY   77  43  29 W18G24    29.68S
JUNEAU         SUNNY     76  51  41 W8G16     29.70F
$$

LSZ147-162-232000-
LAKE SUPERIOR

STATION/POSITION TIME  TEMP    WIND        PRES    WAVE
                       AIR SEA DIR/SP/G            HT/PER
                 (UTC) (F)     (DEG/KT/KT) (MB)    (FT/S)
W MID LAKE BUOY  1850   46 39  250/ 14/ 16 1004.0R   2/ 4
DEVILS ISLAND    1900   56     240/ 15/ 17 1004.9R
SAXON HARBOR     1840   66     300/ 15/ 24 1005.1F
$$

LMZ867-665-643>646-232000-
LAKE MICHIGAN

STATION/POSITION TIME  TEMP    WIND        PRES    WAVE
                       AIR SEA DIR/SP/G            HT/PER
                 (UTC) (F)     (DEG/KT/KT) (MB)    (FT/S)
CHAMBERS ISLAND  1840   76     230/  8/ 15 1002.4S
S GREEN BAY BUOY 1900   73     280/ 14/ 19 1002.9
N MID LAKE BUOY  1850   61 57  200/ 10/ 10 1003.0F   1
NORTHPORT PIER   1840   76     270/  5/ 15 1002.4S
KEWAUNEE LAKESHO 1848   77     300/ 11/ 18 1003.1F
SHEBOYGAN LAKESH 1900   77     290/ 18/ 21 1003.7S
PORT WASHINGTON  1830   80     270/ 12/ 17 1005.4S
ATWATER BUOY     1839   72 60  300/ 12/ 16 1005.5S
MILWAUKEE LAKESH 1850   77     310/  9/ 12   N/A
S MID LAKE BUOY  1850   64 62  260/  6/  6 1005.6R   1
KENOSHA   LAKESH 1900   76     330/ 14/ 16 1005.4
$$

TC  - TEMPERATURE IN CELSIUS
VSB - VISIBILITY IN STATUTE MILES
WCI - WIND CHILL INDEX
HX  - HEAT INDEX





USA.gov is the U.S. government's official web portal to all federal, state and local government web resources and services.